sat.trackr.live / text

‹ back to catalog

QIANFAN-171

NORAD 69388 · 2026-124G

PAYLOAD ACTIVE UNKNOWN

§ Identity

Operator
Country
PRC
Launch date
2026-06-04
Launch site
TAISC
Launch vehicle
Mass (kg)
RCS (m²)

External: N2YO · Heavens-Above · Gunter

§ Orbital elements

Epoch: 2026-09-20T04:27:34.899840Z

Period
106.59 min
Inclination
89.0090°
Eccentricity
0.0002123
Mean motion
13.51029206 rev/d
Perigee alt
1,066.9 km
Apogee alt
1,070.1 km
Semi-major
7,446.6 km
B*
1.3067e-4
RAAN
352.0356°
Arg perigee
103.6041°
Mean anomaly
256.5347°
Rev number
1,488

§ Raw data

QIANFAN-1711 69388U 26124G   26263.18582060  .00000096  00000+0  13067-3 0  99922 69388  89.0090 352.0356 0002123 103.6041 256.5347 13.51029206 14881

JSON: /api/v1/satellites/69388 · /tle

For live sub-satellite position, see the globe view (requires WebGL).

§ Visibility from observer

Set your observer location to see the next 7 days of passes ≥ 10°. The values pass through the URL so the page stays shareable.

No JS? Fill the form by hand. The geolocation button needs JavaScript.